Terminal Aerodrome Forecast
Issued by NWS

Home | Current Version | Previous Version | Text Only | Print | Product List | Glossary On
Versions: 1 2 3 4 5 6 7 8 9 10 11 12 13 14 15
210
FTUS46 KMFR 251140
TAFRBG
TAF
KRBG 251140Z 2512/2612 01005KT P6SM SKC
     FM251400 01004KT P6SM SCT012
     FM251900 01007KT P6SM SKC
     FM252200 35010G17KT P6SM SKC
     FM261000 35005KT P6SM BKN020=

USA.gov is the U.S. government's official web portal to all federal, state and local government web resources and services.